Погода в Красноуфимске

Россия / Свердловская область     56°37′03″N   57°46′14″E
темп.,
°C
ветер,
м/с
пор.,
м/с
влажн.,
%
обл.,
%
осадки,
мм/ч
давл.,
гПа
погр.,
м
18 мая, вт
вт1823:00+19зсз41448100 0.1 1016458
02:00+16зюз118496 2.3 101631
05:00+14з229053 2.4 101628
08:00+18сз25720 0.0 1016331
11:00+22ссз46520 0.0 10171260
14:00+23с55410 0.0 10171837
17:00+23с564057 0.0 10172258
20:00+18ссв58624 0.0 1019716
19 мая, ср
ср1923:00+14всв410760 0.0 1021454
02:00+11всв27850 0.0 1022209
05:00+9всв28890 0.0 1023215
08:00+13в47665 0.0 1024562
11:00+17в46475 0.0 10241005
14:00+21в45378 0.0 10231401
17:00+22вюв3434100 0.0 10221609
20:00+18вюв225390 0.0 102224
20 мая, чт
чт2023:00+13вюв22669 0.0 102414
02:00+11вюв227246 0.0 102412
05:00+10юв11765 0.0 102510
08:00+16юв235730 0.0 1025265
11:00+20юв22425 0.0 1024987
14:00+23юв32335 0.0 10231447
17:00+23юв32320 0.0 10221442
20:00+19юв23500 0.0 102160
21 мая, пт
пт2123:00+15ю11560 0.0 102111
02:00+13ю11615 0.0 102110
05:00+12ю11660 0.0 102210
08:00+18ю24490 0.0 1022242
11:00+23ю34310 0.0 10211593
14:00+25ю34272 0.0 10202420
17:00+26ююз35265 0.0 10192720
20:00+21зюз36464 0.0 1019164
22 мая, сб
сб2223:00+16ю225866 0.0 102014
02:00+14ю247444 0.1 102073
05:00+14юз310845 0.1 1021261
08:00+18юз486835 0.0 1021463
11:00+22зюз6104776 0.0 10211814
14:00+24зюз7103843 0.0 10202255
17:00+23з61142100 0.0 10212022
20:00+19з485079 0.0 1022715